Location: Matrei
(47.1333°N, 11.4500°E)
Time: 04:13:11
(UTC+00:00)

IRS-P3 - Pass Details

Date: 07 June 2020
Orbit: 813 x 819 km, 98.8° (Epoch: 10 July)

Event Time Altitude Azimuth Distance (km) Brightness Sun altitude
Rises 01:56:48 0° 14° (NNE) 3,352 8.6 -11.0°
Reaches altitude 10° 01:59:09 10° 14° (NNE) 2,415 7.7 -10.7°
Maximum altitude 02:04:30 85° 286° (WNW) 824 4.1 -10.1°
Drops below altitude 10° 02:09:49 10° 199° (SSW) 2,396 6.0 -9.6°
Enters shadow 02:09:52 10° 199° (SSW) 2,414 6.0 -9.5°
